| time (UTC) | temp F | wind direction | speed MPH | gust MPH | rain 1hr in | rain 24hr in | rain mn in | humidity % | barometer mb |
| 20260906003519 | 76 | 171 | 8.0 | 10.0 | 0.00 | 0.03 | 0.00 | 35 | 1025.5 |
| 20260906002519 | 75 | 180 | 9.0 | 14.0 | 0.00 | 0.03 | 0.00 | 35 | 1025.4 |
| 20260906001519 | 76 | 179 | 9.0 | 12.0 | 0.00 | 0.03 | 0.00 | 35 | 1025.2 |
| 20260906000520 | 77 | 173 | 13.0 | 18.0 | 0.00 | 0.03 | 0.00 | 33 | 1025.1 |
| 20260905235520 | 78 | 168 | 11.0 | 17.0 | 0.00 | 0.03 | 0.00 | 32 | 1025.1 |
| 20260905234520 | 78 | 176 | 13.0 | 18.0 | 0.00 | 0.03 | 0.00 | 32 | 1025.0 |
| 20260905233520 | 79 | 186 | 11.0 | 18.0 | 0.00 | 0.03 | 0.00 | 30 | 1025.1 |
| 20260905232520 | 80 | 167 | 7.0 | 13.0 | 0.00 | 0.03 | 0.00 | 28 | 1025.0 |
| 20260905231517 | 80 | 191 | 7.0 | 14.0 | 0.00 | 0.03 | 0.00 | 30 | 1025.0 |
| 20260905230517 | 79 | 106 | 8.0 | 17.0 | 0.00 | 0.03 | 0.00 | 30 | 1025.1 |
| 20260905225520 | 79 | 55 | 10.0 | 16.0 | 0.00 | 0.03 | 0.00 | 32 | 1025.1 |
| 20260905224518 | 78 | 57 | 11.0 | 16.0 | 0.00 | 0.03 | 0.00 | 32 | 1025.2 |
| 20260905223518 | 78 | 47 | 16.0 | 21.0 | 0.00 | 0.03 | 0.00 | 33 | 1025.1 |
| 20260905222538 | 78 | 46 | 12.0 | 17.0 | 0.00 | 0.03 | 0.00 | 34 | 1025.1 |
| 20260905221518 | 79 | 151 | 5.0 | 10.0 | 0.00 | 0.03 | 0.00 | 22 | 1025.2 |
| 20260905220519 | 79 | 164 | 7.0 | 10.0 | 0.00 | 0.03 | 0.00 | 24 | 1025.2 |
| 20260905215519 | 79 | 173 | 8.0 | 11.0 | 0.00 | 0.03 | 0.00 | 24 | 1025.3 |
| 20260905214519 | 80 | 222 | 6.0 | 11.0 | 0.00 | 0.03 | 0.00 | 24 | 1025.4 |
| 20260905213522 | 81 | 155 | 4.0 | 8.0 | 0.00 | 0.03 | 0.00 | 26 | 1025.5 |
| 20260905212522 | 81 | 182 | 5.0 | 10.0 | 0.00 | 0.03 | 0.00 | 25 | 1025.6 |
| 20260905211519 | 79 | 189 | 8.0 | 13.0 | 0.00 | 0.03 | 0.00 | 27 | 1025.7 |
| 20260905210520 | 79 | 171 | 7.0 | 15.0 | 0.00 | 0.03 | 0.00 | 28 | 1025.7 |
| 20260905205520 | 81 | 199 | 8.0 | 16.0 | 0.00 | 0.03 | 0.00 | 27 | 1025.8 |
| 20260905204520 | 82 | 167 | 6.0 | 13.0 | 0.00 | 0.03 | 0.00 | 26 | 1025.8 |
| 20260905203518 | 80 | 171 | 8.0 | 14.0 | 0.00 | 0.03 | 0.00 | 28 | 1025.9 |
| 20260905202518 | 81 | 131 | 6.0 | 13.0 | 0.00 | 0.03 | 0.00 | 27 | 1026.1 |
| 20260905201521 | 80 | 172 | 8.0 | 14.0 | 0.00 | 0.03 | 0.00 | 28 | 1026.2 |
| 20260905200518 | 79 | 138 | 5.0 | 12.0 | 0.00 | 0.03 | 0.00 | 29 | 1026.3 |
| 20260905195538 | 81 | 184 | 10.0 | 15.0 | 0.00 | 0.03 | 0.00 | 28 | 1026.3 |
| 20260905194518 | 81 | 278 | 5.0 | 11.0 | 0.00 | 0.03 | 0.00 | 27 | 1026.5 |
| 20260905193518 | 79 | 124 | 4.0 | 8.0 | 0.00 | 0.03 | 0.00 | 29 | 1026.6 |
| 20260905192519 | 80 | 166 | 9.0 | 15.0 | 0.00 | 0.03 | 0.00 | 29 | 1026.7 |
| 20260905191518 | 79 | 150 | 3.0 | 7.0 | 0.00 | 0.03 | 0.00 | 30 | 1026.8 |
| 20260905190519 | 78 | 203 | 8.0 | 14.0 | 0.00 | 0.03 | 0.00 | 31 | 1026.9 |
| 20260905185519 | 79 | 183 | 7.0 | 12.0 | 0.00 | 0.03 | 0.00 | 31 | 1027.0 |
| 20260905184519 | 78 | 280 | 3.0 | 6.0 | 0.00 | 0.03 | 0.00 | 31 | 1027.1 |
| 20260905183600 | 78 | 293 | 4.0 | 9.0 | 0.00 | 0.03 | 0.00 | 31 | 1027.3 |
| 20260905182520 | 77 | 302 | 5.0 | 8.0 | 0.00 | 0.03 | 0.00 | 31 | 1027.4 |
| 20260905181520 | 77 | 177 | 4.0 | 9.0 | 0.00 | 0.03 | 0.00 | 32 | 1027.5 |
| 20260905180520 | 77 | 209 | 6.0 | 12.0 | 0.00 | 0.03 | 0.00 | 32 | 1027.6 |
| 20260905175520 | 76 | 205 | 3.0 | 8.0 | 0.00 | 0.03 | 0.00 | 32 | 1027.7 |
| 20260905174521 | 76 | 202 | 5.0 | 9.0 | 0.00 | 0.03 | 0.00 | 32 | 1027.7 |
| 20260905173521 | 76 | 188 | 4.0 | 6.0 | 0.00 | 0.03 | 0.00 | 32 | 1027.8 |
| 20260905172521 | 75 | 44 | 2.0 | 9.0 | 0.00 | 0.03 | 0.00 | 32 | 1027.9 |
| 20260905171523 | 75 | 32 | 4.0 | 7.0 | 0.00 | 0.03 | 0.00 | 33 | 1027.9 |
| 20260905170530 | 75 | 270 | 2.0 | 5.0 | 0.00 | 0.03 | 0.00 | 34 | 1028.0 |
| 20260905165551 | 75 | 58 | 2.0 | 4.0 | 0.00 | 0.03 | 0.00 | 33 | 1027.9 |
| 20260905164521 | 74 | 53 | 2.0 | 5.0 | 0.00 | 0.03 | 0.00 | 35 | 1028.0 |
| 20260905163551 | 73 | 317 | 2.0 | 4.0 | 0.00 | 0.03 | 0.00 | 36 | 1028.1 |
| 20260905162542 | 72 | 45 | 2.0 | 5.0 | 0.00 | 0.03 | 0.00 | 39 | 1028.1 |
| 20260905161522 | 72 | 198 | 2.0 | 7.0 | 0.00 | 0.03 | 0.00 | 40 | 1028.1 |
| 20260905160531 | 71 | 251 | 1.0 | 2.0 | 0.00 | 0.03 | 0.00 | 41 | 1028.2 |
| 20260905155531 | 69 | 118 | 2.0 | 4.0 | 0.00 | 0.03 | 0.00 | 44 | 1028.2 |
| 20260905154517 | 68 | 352 | 1.0 | 3.0 | 0.00 | 0.03 | 0.00 | 46 | 1028.1 |
| 20260905153531 | 66 | 15 | 1.0 | 2.0 | 0.00 | 0.03 | 0.00 | 49 | 1028.1 |
| 20260905152532 | 64 | 54 | 1.0 | 3.0 | 0.00 | 0.03 | 0.00 | 53 | 1028.3 |
| 20260905151552 | 64 | 46 | 1.0 | 3.0 | 0.00 | 0.03 | 0.00 | 53 | 1028.3 |
| 20260905150532 | 63 | 344 | 3.0 | 4.0 | 0.00 | 0.03 | 0.00 | 54 | 1028.3 |
| 20260905145532 | 62 | 338 | 2.0 | 3.0 | 0.00 | 0.03 | 0.00 | 57 | 1028.5 |
| 20260905144518 | 61 | 301 | 1.0 | 2.0 | 0.00 | 0.03 | 0.00 | 60 | 1028.5 |
| 20260905143518 | 61 | 262 | 2.0 | 3.0 | 0.00 | 0.03 | 0.00 | 59 | 1028.4 |
| 20260905142518 | 60 | 241 | 3.0 | 5.0 | 0.00 | 0.03 | 0.00 | 61 | 1028.3 |
| 20260905141518 | 60 | 237 | 2.0 | 4.0 | 0.00 | 0.03 | 0.00 | 62 | 1028.3 |
| 20260905140518 | 60 | 245 | 2.0 | 3.0 | 0.00 | 0.03 | 0.00 | 61 | 1028.2 |
| 20260905135519 | 59 | 228 | 2.0 | 4.0 | 0.00 | 0.03 | 0.00 | 63 | 1028.1 |
| 20260905134519 | 58 | 174 | 2.0 | 3.0 | 0.00 | 0.03 | 0.00 | 65 | 1028.0 |
| 20260905133519 | 58 | 156 | 2.0 | 3.0 | 0.00 | 0.03 | 0.00 | 69 | 1028.0 |
| 20260905132519 | 58 | 137 | 1.0 | 2.0 | 0.00 | 0.03 | 0.00 | 66 | 1027.9 |
| 20260905131520 | 58 | 237 | 3.0 | 4.0 | 0.00 | 0.03 | 0.00 | 68 | 1027.8 |
| 20260905130520 | 58 | 179 | 5.0 | 6.0 | 0.00 | 0.03 | 0.00 | 66 | 1027.6 |
| 20260905125520 | 58 | 191 | 3.0 | 4.0 | 0.00 | 0.03 | 0.00 | 67 | 1027.5 |
| 20260905124519 | 59 | 236 | 2.0 | 4.0 | 0.00 | 0.03 | 0.00 | 66 | 1027.4 |
| 20260905123521 | 60 | 184 | 4.0 | 6.0 | 0.00 | 0.03 | 0.00 | 60 | 1027.1 |
| 20260905122520 | 60 | 149 | 5.0 | 7.0 | 0.00 | 0.03 | 0.00 | 60 | 1027.0 |
| 20260905121521 | 60 | 153 | 6.0 | 7.0 | 0.00 | 0.03 | 0.00 | 60 | 1027.0 |
| 20260905120521 | 60 | 153 | 6.0 | 7.0 | 0.00 | 0.03 | 0.00 | 59 | 1027.0 |
| 20260905115521 | 60 | 149 | 6.0 | 7.0 | 0.00 | 0.03 | 0.00 | 59 | 1027.0 |
| 20260905114521 | 59 | 149 | 5.0 | 7.0 | 0.00 | 0.03 | 0.00 | 61 | 1027.1 |
| 20260905113541 | 59 | 148 | 5.0 | 7.0 | 0.00 | 0.03 | 0.00 | 61 | 1027.1 |
| 20260905112522 | 59 | 158 | 6.0 | 8.0 | 0.00 | 0.03 | 0.00 | 62 | 1027.2 |
| 20260905111542 | 59 | 152 | 7.0 | 9.0 | 0.00 | 0.03 | 0.00 | 61 | 1027.0 |
| 20260905110522 | 58 | 151 | 6.0 | 9.0 | 0.00 | 0.03 | 0.00 | 62 | 1027.0 |
| 20260905105522 | 58 | 154 | 6.0 | 8.0 | 0.00 | 0.03 | 0.00 | 63 | 1027.0 |
| 20260905104542 | 58 | 154 | 6.0 | 7.0 | 0.00 | 0.03 | 0.00 | 62 | 1027.0 |
| 20260905103523 | 58 | 159 | 6.0 | 8.0 | 0.00 | 0.03 | 0.00 | 63 | 1026.9 |
| 20260905102517 | 58 | 159 | 6.0 | 8.0 | 0.00 | 0.03 | 0.00 | 62 | 1026.9 |
| 20260905101517 | 59 | 130 | 4.0 | 5.0 | 0.00 | 0.03 | 0.00 | 63 | 1026.9 |
| 20260905100524 | 59 | 146 | 5.0 | 7.0 | 0.00 | 0.03 | 0.00 | 63 | 1026.8 |
| 20260905095603 | 59 | 153 | 5.0 | 7.0 | 0.00 | 0.03 | 0.00 | 62 | 1026.9 |
| 20260905094518 | 60 | 156 | 7.0 | 9.0 | 0.00 | 0.03 | 0.00 | 61 | 1026.9 |
| 20260905093518 | 60 | 161 | 8.0 | 10.0 | 0.00 | 0.03 | 0.00 | 61 | 1026.9 |
| 20260905092518 | 60 | 157 | 8.0 | 10.0 | 0.00 | 0.03 | 0.00 | 62 | 1026.9 |
| 20260905091518 | 59 | 157 | 8.0 | 10.0 | 0.00 | 0.03 | 0.00 | 62 | 1027.0 |
| 20260905090521 | 59 | 153 | 8.0 | 11.0 | 0.00 | 0.03 | 0.00 | 63 | 1027.0 |
| 20260905085538 | 59 | 160 | 7.0 | 9.0 | 0.00 | 0.03 | 0.00 | 64 | 1027.0 |
| 20260905084519 | 58 | 163 | 8.0 | 10.0 | 0.00 | 0.03 | 0.00 | 65 | 1027.0 |
| 20260905083519 | 57 | 188 | 7.0 | 9.0 | 0.00 | 0.03 | 0.00 | 70 | 1027.1 |
| 20260905082519 | 58 | 183 | 8.0 | 12.0 | 0.00 | 0.03 | 0.00 | 66 | 1027.0 |
| 20260905081519 | 58 | 163 | 6.0 | 8.0 | 0.00 | 0.03 | 0.00 | 65 | 1027.1 |
| 20260905080559 | 58 | 180 | 8.0 | 11.0 | 0.00 | 0.03 | 0.00 | 64 | 1027.1 |
| 20260905075519 | 58 | 163 | 8.0 | 11.0 | 0.00 | 0.03 | 0.00 | 64 | 1027.1 |
| 20260905074519 | 57 | 158 | 8.0 | 10.0 | 0.00 | 0.03 | 0.00 | 66 | 1027.1 |
| 20260905073520 | 56 | 159 | 6.0 | 8.0 | 0.00 | 0.03 | 0.00 | 69 | 1027.1 |
| 20260905072520 | 57 | 162 | 7.0 | 8.0 | 0.00 | 0.03 | 0.00 | 68 | 1027.1 |
| 20260905071520 | 57 | 159 | 8.0 | 10.0 | 0.00 | 0.03 | 0.00 | 68 | 1027.1 |
| 20260905070518 | 58 | 162 | 7.0 | 10.0 | 0.00 | 0.03 | 0.00 | 67 | 1027.0 |
| 20260905065521 | 58 | 156 | 7.0 | 9.0 | 0.00 | 0.03 | 0.00 | 64 | 1027.0 |
| 20260905064521 | 58 | 178 | 6.0 | 8.0 | 0.00 | 0.03 | 0.00 | 67 | 1027.0 |
| 20260905063521 | 59 | 144 | 6.0 | 8.0 | 0.00 | 0.03 | 0.00 | 63 | 1026.9 |
| 20260905062541 | 58 | 157 | 6.0 | 9.0 | 0.00 | 0.03 | 0.00 | 64 | 1026.9 |
| 20260905061522 | 58 | 153 | 6.0 | 8.0 | 0.00 | 0.03 | 0.00 | 64 | 1026.8 |
| 20260905060521 | 58 | 160 | 7.0 | 9.0 | 0.00 | 0.03 | 0.00 | 64 | 1026.8 |
| 20260905055522 | 59 | 167 | 7.0 | 10.0 | 0.00 | 0.03 | 0.03 | 62 | 1026.8 |
| 20260905054522 | 59 | 161 | 7.0 | 9.0 | 0.00 | 0.03 | 0.03 | 60 | 1026.7 |
| 20260905053522 | 58 | 153 | 5.0 | 6.0 | 0.00 | 0.03 | 0.03 | 61 | 1026.7 |
| 20260905052522 | 57 | 141 | 4.0 | 6.0 | 0.00 | 0.03 | 0.03 | 64 | 1026.8 |
| 20260905051549 | 57 | 143 | 4.0 | 5.0 | 0.00 | 0.03 | 0.03 | 64 | 1026.9 |
| 20260905050517 | 57 | 135 | 4.0 | 6.0 | 0.00 | 0.03 | 0.03 | 64 | 1027.0 |
| 20260905045517 | 58 | 147 | 4.0 | 6.0 | 0.00 | 0.03 | 0.03 | 63 | 1027.0 |
| 20260905044517 | 58 | 151 | 5.0 | 7.0 | 0.00 | 0.03 | 0.03 | 63 | 1027.0 |
| 20260905043523 | 59 | 153 | 5.0 | 7.0 | 0.00 | 0.03 | 0.03 | 63 | 1027.0 |
| 20260905042524 | 58 | 151 | 5.0 | 8.0 | 0.00 | 0.03 | 0.03 | 65 | 1027.0 |
| 20260905041518 | 58 | 153 | 5.0 | 7.0 | 0.00 | 0.03 | 0.03 | 67 | 1027.1 |
| 20260905040518 | 57 | 154 | 5.0 | 7.0 | 0.00 | 0.03 | 0.03 | 71 | 1027.1 |
| 20260905035518 | 58 | 187 | 7.0 | 9.0 | 0.00 | 0.03 | 0.03 | 73 | 1027.0 |
| 20260905034518 | 59 | 190 | 8.0 | 10.0 | 0.00 | 0.03 | 0.03 | 71 | 1027.0 |
| 20260905033519 | 60 | 183 | 8.0 | 11.0 | 0.00 | 0.03 | 0.03 | 65 | 1026.8 |
| 20260905032519 | 60 | 177 | 9.0 | 12.0 | 0.00 | 0.03 | 0.03 | 63 | 1026.7 |
| 20260905031519 | 59 | 172 | 6.0 | 9.0 | 0.00 | 0.03 | 0.03 | 69 | 1026.7 |
| 20260905030519 | 60 | 191 | 8.0 | 11.0 | 0.00 | 0.03 | 0.03 | 67 | 1026.6 |
| 20260905025519 | 62 | 185 | 8.0 | 10.0 | 0.00 | 0.03 | 0.03 | 59 | 1026.5 |
| 20260905024519 | 63 | 150 | 6.0 | 9.0 | 0.00 | 0.03 | 0.03 | 53 | 1026.1 |
| 20260905023519 | 63 | 146 | 7.0 | 9.0 | 0.00 | 0.03 | 0.03 | 58 | 1026.0 |
| 20260905022520 | 62 | 150 | 8.0 | 11.0 | 0.02 | 0.03 | 0.03 | 58 | 1026.0 |
| 20260905021520 | 62 | 175 | 9.0 | 11.0 | 0.02 | 0.03 | 0.03 | 62 | 1026.0 |
| 20260905020517 | 62 | 171 | 10.0 | 14.0 | 0.03 | 0.03 | 0.03 | 62 | 1025.9 |
| 20260905015517 | 61 | 191 | 10.0 | 12.0 | 0.03 | 0.03 | 0.03 | 66 | 1026.0 |
| 20260905014521 | 61 | 201 | 10.0 | 15.0 | 0.03 | 0.03 | 0.03 | 66 | 1026.0 |
| 20260905013518 | 63 | 225 | 10.0 | 14.0 | 0.03 | 0.03 | 0.03 | 61 | 1026.0 |
| 20260905012538 | 65 | 232 | 9.0 | 15.0 | 0.01 | 0.01 | 0.01 | 58 | 1026.0 |
| 20260905011518 | 70 | 219 | 10.0 | 14.0 | 0.01 | 0.01 | 0.01 | 49 | 1025.8 |
| 20260905010518 | 72 | 190 | 11.0 | 15.0 | 0.00 | 0.00 | 0.00 | 44 | 1025.4 |
| 20260905005522 | 72 | 175 | 10.0 | 14.0 | 0.00 | 0.00 | 0.00 | 42 | 1025.2 |
| 20260905004520 | 73 | 167 | 8.0 | 12.0 | 0.00 | 0.00 | 0.00 | 39 | 1025.1 |